Winter Haven, FL

5:49 AM EDT on May 23, 2017 (GMT -0400)
Winter Haven's-Gilbert

Weather History for KGIF - November, 2012

Change the Weather History Date:

Thursday, November 15, 2012

  Actual Average Record
Temperature  
Mean Temperature 63 °F -  
Max Temperature 66 °F 79 °F 89 °F (1948)
Min Temperature 60 °F 57 °F 34 °F (1969)
Degree Days  
Heating Degree Days 2    
Growing Degree Days 13 (Base 50)    
Moisture  
Dew Point 61 °F    
Average Humidity 91    
Maximum Humidity 97    
Minimum Humidity 81    
Precipitation  
Precipitation 0.00 in - - ()
Sea Level Pressure  
Sea Level Pressure 30.14 in    
Wind  
Wind Speed 6 mph (North)    
Max Wind Speed 12 mph    
Max Gust Speed -    
Visibility 7 miles    
Events      
Averages and records for this station are not official NWS values.
T = Trace of Precipitation, MM = Missing Value Source: NWS Daily Summary

Daily Weather History Graph

Daily Weather History Graph

Search for Another Location

Airport or City:

Trip Planner

Search our weather history database for the weather conditions in past years. The results will help you decide how hot, cold, wet, or windy it might be!

Date:

Astronomy

Nov. 15, 2012 Rise Set
Actual Time 6:49 AM EST 5:34 PM EST
Civil Twilight 6:24 AM EST 5:58 PM EST
Nautical Twilight 5:55 AM EST 6:27 PM EST
Astronomical Twilight 5:27 AM EST 6:55 PM EST
Moon 8:37 AM EST (11/15) 7:29 PM EST (11/15)
Length of Visible Light 11h 34m
Length of Day
10h 44m
Waxing Crescent, 5% of the Moon is Illuminated
Nov 15
Waxing Crescent
Nov 20
First Quarter
Nov 28
Full
Dec 6
Last Quarter
Dec 13
New

Hourly Weather History & Observations

Time (EST) Temp. Dew Point Humidity Pressure Visibility Wind Dir Wind Speed Gust Speed Precip Events Conditions
12:07 AM 64.9 °F 63.0 °F 93% 30.14 in 10.0 mi North 4.6 mph - N/A   Mostly Cloudy
12:38 AM 64.9 °F 63.0 °F 93% 30.13 in 10.0 mi North 5.8 mph - N/A   Overcast
12:53 AM 64.9 °F 63.0 °F 93% 30.13 in 10.0 mi NNE 4.6 mph - N/A   Overcast
1:22 AM 64.9 °F 63.0 °F 93% 30.12 in 10.0 mi North 6.9 mph - N/A   Overcast
1:53 AM 64.9 °F 63.0 °F 93% 30.11 in 9.0 mi North 5.8 mph - N/A   Overcast
2:26 AM 64.9 °F 63.0 °F 93% 30.11 in 9.0 mi NNE 6.9 mph - N/A   Overcast
2:36 AM 64.9 °F 63.0 °F 93% 30.11 in 9.0 mi NNE 4.6 mph - N/A   Overcast
2:53 AM 64.9 °F 63.0 °F 93% 30.10 in 9.0 mi NNE 5.8 mph - N/A   Overcast
3:53 AM 64.9 °F 63.0 °F 93% 30.09 in 9.0 mi NNE 3.5 mph - N/A   Overcast
4:11 AM 64.9 °F 63.0 °F 93% 30.10 in 8.0 mi NNE 4.6 mph - N/A   Overcast
4:53 AM 64.9 °F 63.0 °F 93% 30.10 in 8.0 mi NE 4.6 mph - N/A   Overcast
5:53 AM 64.9 °F 63.0 °F 93% 30.11 in 7.0 mi North 5.8 mph - N/A   Overcast
6:43 AM 64.9 °F 63.0 °F 93% 30.13 in 9.0 mi NNE 5.8 mph - N/A   Overcast
6:53 AM 64.9 °F 63.0 °F 93% 30.12 in 8.0 mi NNE 5.8 mph - N/A   Overcast
7:03 AM 64.9 °F 63.0 °F 93% 30.13 in 5.0 mi NNE 4.6 mph - N/A   Overcast
7:21 AM 64.9 °F 63.0 °F 93% 30.13 in 5.0 mi NNE 5.8 mph - N/A   Overcast
7:46 AM 64.9 °F 63.0 °F 93% 30.14 in 2.0 mi North 5.8 mph - N/A   Overcast
7:53 AM 64.9 °F 63.0 °F 93% 30.14 in 1.8 mi North 5.8 mph - N/A   Overcast
7:56 AM 64.9 °F 63.0 °F 93% 30.15 in 2.5 mi North 8.1 mph - N/A   Overcast
7:58 AM 64.9 °F 63.0 °F 93% 30.15 in 3.0 mi North 6.9 mph - N/A   Overcast
8:18 AM 64.9 °F 63.0 °F 93% 30.15 in 5.0 mi North 6.9 mph - N/A   Overcast
8:53 AM 64.9 °F 63.0 °F 93% 30.15 in 3.0 mi North 9.2 mph - N/A   Overcast
9:29 AM 66.0 °F 62.1 °F 87% 30.17 in 10.0 mi North 8.1 mph - N/A   Overcast
9:50 AM 66.2 °F 60.8 °F 83% 30.17 in 10.0 mi North 6.9 mph - N/A   Overcast
9:53 AM 66.9 °F 62.1 °F 84% 30.17 in 10.0 mi North 8.1 mph - N/A   Overcast
10:53 AM 66.9 °F 61.0 °F 81% 30.17 in 10.0 mi NNW 6.9 mph - N/A   Overcast
11:51 AM 66.2 °F 62.6 °F 88% 30.16 in 10.0 mi North 6.9 mph - N/A   Overcast
11:53 AM 66.9 °F 62.1 °F 84% 30.15 in 10.0 mi North 6.9 mph - N/A   Overcast
12:30 PM 66.9 °F 61.0 °F 81% 30.14 in 10.0 mi North 6.9 mph - N/A   Overcast
12:53 PM 66.9 °F 61.0 °F 81% 30.13 in 10.0 mi NNW 8.1 mph - N/A   Overcast
1:53 PM 66.9 °F 61.0 °F 81% 30.11 in 10.0 mi NNW 8.1 mph - N/A   Overcast
2:15 PM 66.9 °F 61.0 °F 81% 30.12 in 10.0 mi North 8.1 mph - N/A   Overcast
2:53 PM 66.0 °F 61.0 °F 84% 30.11 in 10.0 mi NNW 8.1 mph - N/A   Overcast
3:53 PM 64.9 °F 60.1 °F 84% 30.12 in 10.0 mi NNW 8.1 mph - N/A   Overcast
4:53 PM 64.0 °F 60.1 °F 87% 30.12 in 10.0 mi NNE 6.9 mph - N/A   Overcast
5:53 PM 62.1 °F 61.0 °F 96% 30.13 in 2.5 mi North 6.9 mph - N/A   Overcast
6:00 PM 62.1 °F 61.0 °F 96% 30.13 in 2.0 mi North 5.8 mph - N/A   Overcast
6:12 PM 62.1 °F 61.0 °F 96% 30.13 in 2.0 mi North 8.1 mph - N/A   Overcast
6:53 PM 62.1 °F 60.1 °F 93% 30.14 in 2.0 mi North 8.1 mph - N/A   Overcast
7:00 PM 62.1 °F 60.1 °F 93% 30.14 in 2.0 mi North 9.2 mph - N/A   Overcast
7:19 PM 62.1 °F 60.1 °F 93% 30.14 in 2.5 mi NNE 9.2 mph - N/A   Overcast
7:30 PM 61.0 °F 60.1 °F 97% 30.14 in 3.0 mi NNE 9.2 mph - N/A   Overcast
7:53 PM 62.1 °F 60.1 °F 93% 30.14 in 5.0 mi NE 8.1 mph - N/A   Overcast
8:01 PM 62.1 °F 60.1 °F 93% 30.15 in 4.0 mi NE 8.1 mph - N/A   Overcast
8:38 PM 61.0 °F 59.0 °F 93% 30.16 in 2.5 mi NNE 9.2 mph - N/A   Overcast
8:53 PM 61.0 °F 59.0 °F 93% 30.16 in 2.5 mi NNE 10.4 mph - N/A   Overcast
9:03 PM 61.0 °F 59.0 °F 93% 30.16 in 2.0 mi NNE 10.4 mph - N/A   Overcast
9:12 PM 60.1 °F 59.0 °F 96% 30.16 in 2.5 mi NNE 11.5 mph - N/A   Overcast
9:20 PM 60.1 °F 59.0 °F 96% 30.16 in 4.0 mi NNE 10.4 mph - N/A   Overcast
9:39 PM 60.1 °F 57.9 °F 93% 30.17 in 5.0 mi NNE 9.2 mph - N/A   Overcast
9:53 PM 60.1 °F 57.9 °F 93% 30.16 in 7.0 mi North 5.8 mph - N/A   Overcast
10:04 PM 61.0 °F 57.9 °F 90% 30.17 in 8.0 mi NNE 6.9 mph - N/A   Overcast
10:25 PM 60.1 °F 57.9 °F 93% 30.17 in 9.0 mi North 5.8 mph - N/A   Overcast
10:43 PM 60.1 °F 57.9 °F 93% 30.17 in 9.0 mi North 9.2 mph - N/A   Overcast
10:53 PM 60.1 °F 57.9 °F 93% 30.16 in 9.0 mi North 8.1 mph - N/A   Overcast
11:03 PM 60.1 °F 57.9 °F 93% 30.16 in 9.0 mi North 6.9 mph - N/A   Overcast
11:37 PM 60.1 °F 57.0 °F 90% 30.16 in 9.0 mi North 5.8 mph - N/A   Scattered Clouds
11:53 PM 60.1 °F 57.0 °F 90% 30.15 in 9.0 mi NNE 6.9 mph - N/A   Scattered Clouds